Темурмалик

Таджикистан     38°02′57″N   69°35′16″E
темп.,
°C
ветер,
м/с
пор.,
м/с
влажн.,
%
обл.,
%
осадки,
мм/ч
давл.,
гПа
погр.,
м
15 апреля, чт
чт1523:00+13ссв4654100 0.0 101575
02:00+12ссв4560100 0.1 101460
05:00+12ссв3455100 0.2 101443
08:00+14вюв1162100 0.3 101679
11:00+17вюв1159100 0.5 1017454
14:00+17ююв2266100 2.1 1016329
17:00+17в0171100 3.3 1016173
20:00+13ссв2281100 0.1 101712
16 апреля, пт
пт1623:00+11ссв44840 0.4 101749
02:00+10ссв46840 0.0 101675
05:00+9ссв46820 0.0 101678
08:00+14св356946 0.0 1017191
11:00+20вюв12474 0.0 10161158
14:00+22з11379 0.0 10141936
17:00+22з114172 0.0 10131441
20:00+15сз115098 0.0 101511
17 апреля, сб
сб1723:00+13ссв44645 0.0 101542
02:00+12ссв446523 0.0 101447
05:00+11ссв446715 0.0 101542
08:00+16ссв336393 0.0 1016143
11:00+21ююз224624 0.0 10161015
14:00+22ююз22395 0.0 10142413
17:00+22ююз22465 0.0 10131709
20:00+15с116029 0.1 101511
18 апреля, вс
вс1823:00+13ссв3372100 0.1 101642
02:00+13св2269100 0.0 101615
05:00+13в0169100 0.2 101810
08:00+15всв1161100 0.3 1021141
11:00+18ю4645100 0.3 10222006
14:00+19ю454276 0.0 10202029
17:00+19вюв22446 0.0 10201174
20:00+12ссв59685 0.0 1021130
19 апреля, пн
пн1923:00+11ссв596968 0.0 1020123
02:00+11ссв5868100 0.0 1019115
05:00+10ссв586691 0.0 1018118
08:00+14ссв57615 0.0 1018241
11:00+20св333815 0.0 10151280
14:00+22с113222 0.0 10131881
17:00+22ю013467 0.0 10111601
20:00+15ссз1146100 0.0 101211